Preview of NWS' New Version of Forecast
This preview is not operational and should not be used for support decisions.

Regional Weather Roundup (RWR)

Issued by National Weather Service (NWS)

                            
000
ASUS43 KMKX 202300
RWRWI 

WISCONSIN REGIONAL WEATHER ROUNDUP
NATIONAL WEATHER SERVICE MILWAUKEE/SULLIVAN WI
600 PM CDT TUE AUG 20 2019

NOTE: "FAIR" INDICATES FEW OR NO CLOUDS BELOW 12,000 FEET WITH NO
SIGNIFICANT WEATHER AND/OR OBSTRUCTIONS TO VISIBILITY.

WIZ001-002-006>008-014>016-023>028-210000-
NORTHWEST WISCONSIN
  
CITY           SKY/WX    TMP DP  RH WIND       PRES   REMARKS
SUPERIOR ARPT  FAIR      79  65  61 N12       29.90R HX  81           
ASHLAND        FAIR      79  64  60 W7        29.91R HX  81           
HAYWARD        FAIR      79  64  60 VRB5      29.94S HX  81           
SIREN          FAIR      80  63  55 NW10G16   29.93F HX  81           
CUMBERLAND     FAIR      77  63  61 W8        29.95S                  
RICE LAKE      FAIR      79  62  56 W8        29.95S HX  80           
CHETEK         FAIR      79  66  65 W5        29.94S HX  81           
LADYSMITH      FAIR      78  65  62 W6        29.97R HX  80           
EAU CLAIRE     NOT AVBL                                               
MENOMONIE      PTSUNNY   75  64  68 W8        29.94R                  
NEW RICHMOND   FAIR      80  65  60 W10       29.95R HX  81           
OSCEOLA        FAIR      80  67  66 W7        29.96S HX  82           
$$
 
WIZ003>005-009-010-017-018-210000-
NORTH CENTRAL WISCONSIN
  
CITY           SKY/WX    TMP DP  RH WIND       PRES   REMARKS
MANITOWISH WTR FAIR      76  62  61 W3        29.95R                  
ARBOR VITAE    FAIR      77  62  59 W6        29.95R                  
WOODRUFF       FAIR      77  62  59 W6        29.95R                  
RHINELANDER    FAIR      77  61  57 W6        29.96S                  
EAGLE RIVER    FAIR      73  58  60 CALM      29.95R                  
LAND O LAKES   FAIR      77  58  51 W5        29.96R                  
PHILLIPS       FAIR      75  63  66 NW6       29.95S                  
TOMAHAWK       FAIR      76  61  58 W7        29.96S                  
MEDFORD        FAIR      74  62  64 W5        29.95F                  
MERRILL        FAIR      77  64  63 W5        29.95F                  
$$
 
WIZ029-030-035-036-043>047-210000-
CENTRAL WISCONSIN
  
CITY           SKY/WX    TMP DP  RH WIND       PRES   REMARKS
WAUSAU         FAIR      78  62  57 W9        29.94S HX  80           
MOSINEE        MOSUNNY   77  63  61 W6        29.97R                  
MARSHFIELD     FAIR      77  62  59 NW6       29.96S                  
STEVENS POINT  FAIR      76  62  60 W7        29.96S                  
WAUPACA        PTSUNNY   82  68  63 SW5       29.93F HX  85           
WAUTOMA        FAIR      81  68  64 SW7       29.93F HX  84           
WISC RAPIDS    FAIR      80  64  58 NW7       29.95F HX  82           
CAMP DOUGLAS   NOT AVBL                                               
$$
 
WIZ011>013-019>022-031-037>040-048>050-210000-
NORTHEAST WISCONSIN
  
CITY           SKY/WX    TMP DP  RH WIND       PRES   REMARKS
ANTIGO         PTSUNNY   75  63  65 SW9       29.96S                  
SHAWANO        FAIR      81  66  61 SW3       29.93S HX  83           
OCONTO         PTSUNNY   80  65  61 SW3       29.91R HX  82           
STURGEON BAY   FAIR      77  67  71 S7        29.93R                  
GREEN BAY      FAIR      81  70  69 SW8       29.92R HX  84           
MANITOWOC      FAIR      73  68  84 MISG      29.93S                  
APPLETON       PTSUNNY   79  68  69 SW7       29.92R HX  81           
CLINTONVILLE   FAIR      81  65  58 W6        29.93S HX  82           
OSHKOSH        FAIR      81  69  67 S7        29.91S HX  84           
$$
 
WIZ032>034-041-042-053>061-210000-
SOUTHWEST WISCONSIN
  
CITY           SKY/WX    TMP DP  RH WIND       PRES   REMARKS
LA CROSSE      FAIR      84  68  58 NW5       29.92S HX  87           
SPARTA         FAIR      80  65  59 W9        29.94S HX  82           
VIROQUA        FAIR      80  70  71 W5        29.95S HX  84           
BOSCOBEL       FAIR      83  67  58 SW6       29.92F HX  85           
PRAIRIE DU CHI FAIR      82  65  55 CALM      29.92S HX  84           
PLATTEVILLE    FAIR      80  71  71 CALM      29.94F HX  84           
$$

WIZ056-057-062-063-064-067-068-210000-
SOUTH CENTRAL WISCONSIN
  
CITY           SKY/WX    TMP DP  RH WIND       PRES   REMARKS
REEDSBURG      FAIR      82  68  64 W10G16    29.94R HX  84           
BARABOO/DELLS  FAIR      80  66  62 W8        29.94R HX  83           
LONE ROCK      NOT AVBL                                               
MINERAL POINT  FAIR      86  68  54 S3        29.94F HX  89           
MADISON        FAIR      81  68  64 S10       29.90F HX  84           
MIDDLETON      FAIR     N/A N/A N/A S8        29.92F                  
WATERTOWN      FAIR      80  69  69 S9        29.92R HX  82           
MONROE         FAIR      77  67  73 SE6       29.92F                  
JANESVILLE     PTSUNNY   79  66  65 S9        29.92F HX  81           
$$
 
WIZ051-052-058>065-066-070>072-210000-
SOUTHEAST WISCONSIN
  
CITY           SKY/WX    TMP DP  RH WIND       PRES   REMARKS
MILWAUKEE      FAIR      79  69  71 SE6       29.90F HX  81           
WAUKESHA       SUNNY     77  66  69 S5        29.93S                  
MILWAUKEE/TIMM SUNNY     81  63  54 S7        29.91F HX  82           
RACINE         FAIR      77  69  76 CALM      29.91F                  
KENOSHA        FAIR      79  69  71 E3        29.90F HX  81           
FOND DU LAC    FAIR      84  68  58 W7        29.93R HX  87           
SHEBOYGAN      FAIR      75  68  78 SE6       29.92R                  
WEST BEND      FAIR      79  70  73 SW8       29.91S HX  81           
JUNEAU         FAIR      79  70  75 S3        29.94R HX  81           
$$

LSZ147-162-210000-
LAKE SUPERIOR
  
STATION/POSITION TIME  TEMP    WIND        PRES    WAVE
                       AIR SEA DIR/SP/G            HT/PER
                 (UTC) (F)     (DEG/KT/KT) (MB)    (FT/S)
W MID LAKE BUOY  2150   66 64  220/  2/  4 1011.6R   1
DEVILS ISLAND    2200   71     260/ 13/ 16 1012.0R
SAXON HARBOR     2240   78     280/  3/  4 1012.2R
$$
 
LMZ867-665-643>646-210000-
LAKE MICHIGAN
  
STATION/POSITION TIME  TEMP    WIND        PRES    WAVE
                       AIR SEA DIR/SP/G            HT/PER
                 (UTC) (F)     (DEG/KT/KT) (MB)    (FT/S)
S GREEN BAY BUOY 2230   82 73   70/  2/  2 1012.9F
N MID LAKE BUOY  2240   71 70  210/  6/  8 1013.3R
NORTHPORT PIER   2240   76     130/  3/  4 1012.5S
KEWAUNEE LAKESHO 2230   69     190/  8/ 11 1012.6F
SHEBOYGAN LAKESH 2200   71     160/ 14/ 15 1012.7F
PORT WASHINGTON  2240   76     170/  7/  9 1013.5S
ATWATER BUOY     2230   72 71  170/  8/  8 1012.7F   1
S MID LAKE BUOY  2240   73 74  340/  2/  4 1012.0F
KENOSHA   LAKESH 2200   76     150/  3/  4 1013.2
$$

TC  - TEMPERATURE IN CELSIUS
VSB - VISIBILITY IN STATUTE MILES
WCI - WIND CHILL INDEX
HX  - HEAT INDEX